,,,PA_Meas_PMT16A,,PR_Meas_QMR101_102,,RH_Meas_QMH101,,SR_Meas_QMS101,,TA_Meas_QMH101,,GenWind,,GenWind,
date,time,status,PA,status,PR,status,RH,status,SR,status,TA,status,DirAvg,status,SpdAvg,
2011-12-02, 00:00:04,VALID,997.566,VALID,0,VALID,94.4776,VALID,0,VALID,23.4475,VALID,30,VALID,0,
2011-12-02, 00:01:04,VALID,997.576,VALID,0,VALID,94.47,VALID,0,VALID,23.4671,VALID,30,VALID,0,
2011-12-02, 00:02:04,VALID,997.56,VALID,0,VALID,94.4623,VALID,0,VALID,23.4475,VALID,30,VALID,0,
2011-12-02, 00:03:04,VALID,997.56,VALID,0,VALID,94.4928,VALID,0,VALID,23.4475,VALID,30,VALID,0.116406,
2011-12-02, 00:04:04,VALID,997.543,VALID,0,VALID,94.47,VALID,0,VALID,23.4475,VALID,30,VALID,0,
2011-12-02, 00:05:04,VALID,997.538,VALID,0,VALID,94.4547,VALID,0,VALID,23.428,VALID,30,VALID,0,
2011-12-02, 00:06:04,VALID,997.552,VALID,0,VALID,94.47,VALID,0,VALID,23.4475,VALID,35,VALID,0,
2011-12-02, 00:07:04,VALID,997.582,VALID,0,VALID,94.4776,VALID,0,VALID,23.4671,VALID,50,VALID,0,
2011-12-02, 00:08:04,VALID,997.573,VALID,0,VALID,94.4928,VALID,0,VALID,23.4067,VALID,52,VALID,0,
2011-12-02, 00:09:04,VALID,997.545,VALID,0,VALID,94.4928,VALID,0,VALID,23.428,VALID,52,VALID,0,
2011-12-02, 00:10:04,VALID,997.564,VALID,0,VALID,94.5081,VALID,0,VALID,23.428,VALID,53,VALID,0,
2011-12-02, 00:11:04,VALID,997.53,VALID,0,VALID,94.5005,VALID,0,VALID,23.3677,VALID,53,VALID,0,
2011-12-02, 00:12:04,VALID,997.558,VALID,0,VALID,94.5005,VALID,0,VALID,23.389,VALID,53,VALID,0,
2011-12-02, 00:13:04,VALID,997.553,VALID,0,VALID,94.5081,VALID,0,VALID,23.3287,VALID,53,VALID,0,
2011-12-02, 00:14:04,VALID,997.538,VALID,0,VALID,94.5234,VALID,0,VALID,23.35,VALID,53,VALID,0,
2011-12-02, 00:15:04,VALID,997.537,VALID,0,VALID,94.5081,VALID,0,VALID,23.35,VALID,53,VALID,0,
2011-12-02, 00:16:04,VALID,997.549,VALID,0,VALID,94.5234,VALID,0,VALID,23.3305,VALID,53,VALID,0,
2011-12-02, 00:17:04,VALID,997.566,VALID,0,VALID,94.5157,VALID,0,VALID,23.311,VALID,53,VALID,0,
2011-12-02, 00:18:04,VALID,997.558,VALID,0,VALID,94.531,VALID,0,VALID,23.2897,VALID,53,VALID,0,
2011-12-02, 00:19:04,VALID,997.569,VALID,0,VALID,94.5386,VALID,0,VALID,23.2915,VALID,53,VALID,0,
2011-12-02, 00:20:04,VALID,997.566,VALID,0,VALID,94.5234,VALID,0,VALID,23.2719,VALID,53,VALID,0,
2011-12-02, 00:21:04,VALID,997.57,VALID,0,VALID,94.531,VALID,0,VALID,23.2312,VALID,53,VALID,0,
2011-12-02, 00:22:04,VALID,997.571,VALID,0,VALID,94.5386,VALID,0,VALID,23.2507,VALID,53,VALID,0.628516,
2011-12-02, 00:23:04,VALID,997.572,VALID,0,VALID,94.5157,VALID,0,VALID,23.2915,VALID,31,VALID,0.849219,
2011-12-02, 00:24:04,VALID,997.566,VALID,0,VALID,94.5157,VALID,0,VALID,23.2897,VALID,15,VALID,0.789063,
2011-12-02, 00:25:04,VALID,997.564,VALID,0,VALID,94.5005,VALID,0,VALID,23.3305,VALID,14,VALID,0.614453,
2011-12-02, 00:26:04,VALID,997.521,VALID,0,VALID,94.5234,VALID,0,VALID,23.3287,VALID,14,VALID,0.502734,
2011-12-02, 00:27:04,VALID,997.509,VALID,0,VALID,94.5157,VALID,0,VALID,23.3482,VALID,14,VALID,0.433984,
2011-12-02, 00:28:04,VALID,997.481,VALID,0,VALID,94.5005,VALID,0,VALID,23.389,VALID,14,VALID,0.24375,
2011-12-02, 00:29:04,VALID,997.455,VALID,0,VALID,94.5005,VALID,0,VALID,23.3677,VALID,14,VALID,0.204297,
2011-12-02, 00:30:04,VALID,997.463,VALID,0,VALID,94.4928,VALID,0,VALID,23.3872,VALID,14,VALID,0.323438,
2011-12-02, 00:31:04,VALID,997.403,VALID,0,VALID,94.5005,VALID,0,VALID,23.3872,VALID,14,VALID,0.285937,
2011-12-02, 00:32:04,VALID,997.406,VALID,0,VALID,94.4928,VALID,0,VALID,23.428,VALID,14,VALID,0.592188,
2011-12-02, 00:33:04,VALID,997.386,VALID,0,VALID,94.5081,VALID,0,VALID,23.428,VALID,14,VALID,0.693359,
2011-12-02, 00:34:04,VALID,997.371,VALID,0,VALID,94.5081,VALID,0,VALID,23.4067,VALID,38,VALID,0.9875,
2011-12-02, 00:35:04,VALID,997.342,VALID,0,VALID,94.5081,VALID,0,VALID,23.4263,VALID,45,VALID,1.08711,
2011-12-02, 00:36:04,VALID,997.312,VALID,0,VALID,94.4852,VALID,0,VALID,23.4263,VALID,52,VALID,1.00156,
2011-12-02, 00:37:04,VALID,997.262,VALID,0,VALID,94.5005,VALID,0,VALID,23.4866,VALID,66,VALID,1.36523,
2011-12-02, 00:38:04,VALID,997.245,VALID,0,VALID,94.5005,VALID,0,VALID,23.5061,VALID,64,VALID,1.1125,
2011-12-02, 00:39:04,VALID,997.178,VALID,0,VALID,94.4776,VALID,0,VALID,23.5043,VALID,65,VALID,1.08047,
2011-12-02, 00:40:04,VALID,997.164,VALID,0,VALID,94.4852,VALID,0,VALID,23.5043,VALID,64,VALID,0.810938,
2011-12-02, 00:41:04,VALID,997.094,VALID,0,VALID,94.4928,VALID,0,VALID,23.5043,VALID,64,VALID,0.951172,
2011-12-02, 00:42:04,VALID,997.09,VALID,0,VALID,94.5005,VALID,0,VALID,23.5043,VALID,64,VALID,0.866406,
2011-12-02, 00:43:04,VALID,997.025,VALID,0,VALID,94.5081,VALID,0,VALID,23.4848,VALID,64,VALID,1.00547,
2011-12-02, 00:44:04,VALID,996.994,VALID,0,VALID,94.5234,VALID,0,VALID,23.4848,VALID,70,VALID,0.697266,
2011-12-02, 00:45:04,VALID,996.96,VALID,0,VALID,94.5157,VALID,0,VALID,23.4653,VALID,76,VALID,0.344922,
2011-12-02, 00:46:04,VALID,996.963,VALID,0,VALID,94.5386,VALID,0,VALID,23.4866,VALID,76,VALID,0.427734,
2011-12-02, 00:47:04,VALID,996.931,VALID,0,VALID,94.531,VALID,0,VALID,23.4671,VALID,82,VALID,0.558203,
2011-12-02, 00:48:04,VALID,996.934,VALID,0,VALID,94.531,VALID,0,VALID,23.4458,VALID,95,VALID,0.41875,
2011-12-02, 00:49:04,VALID,996.941,VALID,0,VALID,94.5386,VALID,0,VALID,23.4263,VALID,95,VALID,0.285156,
2011-12-02, 00:50:04,VALID,996.945,VALID,0,VALID,94.5234,VALID,0,VALID,23.428,VALID,95,VALID,0.278516,
2011-12-02, 00:51:04,VALID,996.928,VALID,0,VALID,94.5157,VALID,0,VALID,23.4263,VALID,95,VALID,0.169922,
2011-12-02, 00:52:04,VALID,996.903,VALID,0,VALID,94.531,VALID,0,VALID,23.4067,VALID,95,VALID,0,
2011-12-02, 00:53:04,VALID,996.884,VALID,0,VALID,94.5462,VALID,0,VALID,23.4085,VALID,95,VALID,0,
2011-12-02, 00:54:04,VALID,996.864,VALID,0,VALID,94.5539,VALID,0,VALID,23.389,VALID,95,VALID,0,
2011-12-02, 00:55:04,VALID,996.824,VALID,0,VALID,94.5386,VALID,0,VALID,23.3482,VALID,95,VALID,0,
2011-12-02, 00:56:04,VALID,996.808,VALID,0,VALID,94.5462,VALID,0,VALID,23.3695,VALID,95,VALID,0.243359,
2011-12-02, 00:57:04,VALID,996.807,VALID,0,VALID,94.5157,VALID,0,VALID,23.3872,VALID,95,VALID,0.115625,
2011-12-02, 00:58:04,VALID,996.78,VALID,0,VALID,94.5386,VALID,0,VALID,23.4067,VALID,95,VALID,0,
2011-12-02, 00:59:04,VALID,996.77,VALID,0,VALID,94.5157,VALID,0,VALID,23.4067,VALID,95,VALID,0,
2011-12-02, 01:00:04,VALID,996.741,VALID,0,VALID,94.5234,VALID,0,VALID,23.4263,VALID,95,VALID,0,
2011-12-02, 01:01:04,VALID,996.739,VALID,0,VALID,94.531,VALID,0,VALID,23.428,VALID,95,VALID,0,
2011-12-02, 01:02:04,VALID,996.744,VALID,0,VALID,94.5157,VALID,0,VALID,23.4263,VALID,105,VALID,0.228125,
2011-12-02, 01:03:04,VALID,996.703,VALID,0,VALID,94.5081,VALID,0,VALID,23.4458,VALID,105,VALID,0.779688,
2011-12-02, 01:04:04,VALID,996.717,VALID,0,VALID,94.5386,VALID,0,VALID,23.4475,VALID,110,VALID,1.07773,
2011-12-02, 01:05:04,VALID,996.69,VALID,0,VALID,94.5462,VALID,0,VALID,23.4067,VALID,110,VALID,1.08867,
2011-12-02, 01:06:04,VALID,996.686,VALID,0,VALID,94.5386,VALID,0,VALID,23.428,VALID,110,VALID,0.944531,
2011-12-02, 01:07:04,VALID,996.679,VALID,0,VALID,94.531,VALID,0,VALID,23.4067,VALID,110,VALID,0.813281,
2011-12-02, 01:08:04,VALID,996.681,VALID,0,VALID,94.5462,VALID,0,VALID,23.4067,VALID,101,VALID,1.07148,
2011-12-02, 01:09:04,VALID,996.67,VALID,0,VALID,94.5462,VALID,0,VALID,23.4475,VALID,107,VALID,1.08516,
2011-12-02, 01:10:04,VALID,996.648,VALID,0,VALID,94.5539,VALID,0,VALID,23.428,VALID,107,VALID,0.759375,
2011-12-02, 01:11:04,VALID,996.633,VALID,0,VALID,94.5615,VALID,0,VALID,23.428,VALID,108,VALID,0.779297,
2011-12-02, 01:12:04,VALID,996.606,VALID,0,VALID,94.5539,VALID,0,VALID,23.428,VALID,114,VALID,0.278906,
2011-12-02, 01:13:04,VALID,996.593,VALID,0,VALID,94.5539,VALID,0,VALID,23.4067,VALID,114,VALID,0.815625,
2011-12-02, 01:14:04,VALID,996.588,VALID,0,VALID,94.5462,VALID,0,VALID,23.428,VALID,119,VALID,0.641406,
2011-12-02, 01:15:04,VALID,996.576,VALID,0,VALID,94.5691,VALID,0,VALID,23.4067,VALID,116,VALID,0.814062,
2011-12-02, 01:16:04,VALID,996.534,VALID,0,VALID,94.5386,VALID,0,VALID,23.4067,VALID,120,VALID,0.741016,
2011-12-02, 01:17:04,VALID,996.562,VALID,0,VALID,94.5539,VALID,0,VALID,23.4067,VALID,120,VALID,0.752344,
2011-12-02, 01:18:04,VALID,996.528,VALID,0,VALID,94.5615,VALID,0,VALID,23.4067,VALID,115,VALID,0.582812,
2011-12-02, 01:19:04,VALID,996.516,VALID,0,VALID,94.5539,VALID,0,VALID,23.4263,VALID,114,VALID,0.758203,
2011-12-02, 01:20:04,VALID,996.507,VALID,0,VALID,94.5691,VALID,0,VALID,23.4263,VALID,116,VALID,0.421875,
2011-12-02, 01:21:04,VALID,996.559,VALID,0,VALID,94.531,VALID,0,VALID,23.4475,VALID,116,VALID,0.175781,
2011-12-02, 01:22:04,VALID,996.535,VALID,0,VALID,94.5615,VALID,0,VALID,23.428,VALID,116,VALID,0,
2011-12-02, 01:23:04,VALID,996.498,VALID,0,VALID,94.5615,VALID,0,VALID,23.3872,VALID,116,VALID,0,
2011-12-02, 01:24:04,VALID,996.491,VALID,0,VALID,94.5691,VALID,0,VALID,23.3695,VALID,116,VALID,0,
2011-12-02, 01:25:04,VALID,996.463,VALID,0,VALID,94.5615,VALID,0,VALID,23.3695,VALID,116,VALID,0.263281,
2011-12-02, 01:26:04,VALID,996.483,VALID,0,VALID,94.5691,VALID,0.104696,VALID,23.3695,VALID,116,VALID,0,
2011-12-02, 01:27:04,VALID,996.483,VALID,0,VALID,94.5844,VALID,0,VALID,23.3482,VALID,116,VALID,0.00429688,
2011-12-02, 01:28:04,VALID,996.46,VALID,0,VALID,94.5844,VALID,0,VALID,23.3482,VALID,116,VALID,0,
2011-12-02, 01:29:04,VALID,996.454,VALID,0,VALID,94.5768,VALID,0,VALID,23.3695,VALID,116,VALID,0.00078125,
2011-12-02, 01:30:04,VALID,996.464,VALID,0,VALID,94.5844,VALID,0,VALID,23.3482,VALID,116,VALID,0.133203,
2011-12-02, 01:31:04,VALID,996.477,VALID,0,VALID,94.5539,VALID,0,VALID,23.3695,VALID,116,VALID,0.148438,
2011-12-02, 01:32:04,VALID,996.446,VALID,0,VALID,94.5844,VALID,0,VALID,23.3482,VALID,116,VALID,0,
2011-12-02, 01:33:04,VALID,996.406,VALID,0,VALID,94.592,VALID,0,VALID,23.311,VALID,116,VALID,0.0214844,
2011-12-02, 01:34:04,VALID,996.398,VALID,0,VALID,94.592,VALID,0,VALID,23.2915,VALID,116,VALID,0,
2011-12-02, 01:35:04,VALID,996.38,VALID,0,VALID,94.592,VALID,0,VALID,23.2507,VALID,116,VALID,0.197266,
2011-12-02, 01:36:04,VALID,996.333,VALID,0,VALID,94.6073,VALID,0,VALID,23.2312,VALID,116,VALID,0.096875,
2011-12-02, 01:37:04,VALID,996.325,VALID,0,VALID,94.6073,VALID,0,VALID,23.2312,VALID,116,VALID,0.328906,
2011-12-02, 01:38:04,VALID,996.349,VALID,0,VALID,94.6073,VALID,0,VALID,23.2507,VALID,116,VALID,0.533984,
2011-12-02, 01:39:04,VALID,996.304,VALID,0,VALID,94.6149,VALID,0,VALID,23.2524,VALID,116,VALID,0.402344,
2011-12-02, 01:40:04,VALID,996.329,VALID,0,VALID,94.6073,VALID,0,VALID,23.2312,VALID,116,VALID,0.780859,
2011-12-02, 01:41:04,VALID,996.32,VALID,0,VALID,94.592,VALID,0,VALID,23.2329,VALID,116,VALID,0.503125,
2011-12-02, 01:42:04,VALID,996.302,VALID,0,VALID,94.6073,VALID,0,VALID,23.2524,VALID,116,VALID,0.347656,
2011-12-02, 01:43:04,VALID,996.312,VALID,0,VALID,94.6073,VALID,0,VALID,23.2329,VALID,116,VALID,0.506641,
2011-12-02, 01:44:04,VALID,996.286,VALID,0,VALID,94.6226,VALID,0,VALID,23.2117,VALID,116,VALID,0.437109,
2011-12-02, 01:45:04,VALID,996.256,VALID,0,VALID,94.5997,VALID,0,VALID,23.2134,VALID,116,VALID,0.526563,
2011-12-02, 01:46:04,VALID,996.256,VALID,0,VALID,94.5844,VALID,0,VALID,23.1921,VALID,116,VALID,0.503516,
2011-12-02, 01:47:04,VALID,996.263,VALID,0,VALID,94.5997,VALID,0,VALID,23.1921,VALID,116,VALID,0.383594,
2011-12-02, 01:48:04,VALID,996.243,VALID,0,VALID,94.6073,VALID,0,VALID,23.1921,VALID,116,VALID,0.454688,
2011-12-02, 01:49:04,VALID,996.261,VALID,0,VALID,94.5997,VALID,0,VALID,23.1921,VALID,131,VALID,0.408203,
2011-12-02, 01:50:04,VALID,996.24,VALID,0,VALID,94.5997,VALID,0,VALID,23.2134,VALID,131,VALID,0.524219,
2011-12-02, 01:51:04,VALID,996.235,VALID,0,VALID,94.592,VALID,0,VALID,23.2134,VALID,131,VALID,0.351563,
2011-12-02, 01:52:04,VALID,996.217,VALID,0,VALID,94.592,VALID,0,VALID,23.1921,VALID,131,VALID,0.539063,
2011-12-02, 01:53:04,VALID,996.195,VALID,0,VALID,94.5615,VALID,0,VALID,23.2524,VALID,151,VALID,0.948047,
2011-12-02, 01:54:04,VALID,996.145,VALID,0,VALID,94.5844,VALID,0,VALID,23.2719,VALID,152,VALID,1.03164,
2011-12-02, 01:55:04,VALID,996.111,VALID,0,VALID,94.5844,VALID,0,VALID,23.2915,VALID,153,VALID,0.711719,
2011-12-02, 01:56:04,VALID,996.114,VALID,0,VALID,94.592,VALID,0,VALID,23.2915,VALID,153,VALID,0.939844,
2011-12-02, 01:57:04,VALID,996.107,VALID,0,VALID,94.592,VALID,0,VALID,23.2915,VALID,154,VALID,0.553906,
2011-12-02, 01:58:04,VALID,996.084,VALID,0,VALID,94.592,VALID,0,VALID,23.2702,VALID,154,VALID,0.454688,
2011-12-02, 01:59:04,VALID,996.056,VALID,0,VALID,94.5997,VALID,0,VALID,23.311,VALID,154,VALID,0.385938,
2011-12-02, 02:00:04,VALID,996.027,VALID,0,VALID,94.592,VALID,0,VALID,23.2915,VALID,154,VALID,0.467187,
2011-12-02, 02:01:04,VALID,996.019,VALID,0,VALID,94.5997,VALID,0,VALID,23.2702,VALID,147,VALID,0.606641,
2011-12-02, 02:02:04,VALID,996.006,VALID,0,VALID,94.5844,VALID,0,VALID,23.2507,VALID,147,VALID,0.546875,
2011-12-02, 02:03:04,VALID,996.014,VALID,0,VALID,94.5844,VALID,0,VALID,23.2719,VALID,147,VALID,0.367578,
2011-12-02, 02:04:04,VALID,996,VALID,0,VALID,94.5768,VALID,0,VALID,23.2524,VALID,147,VALID,0.192578,
2011-12-02, 02:05:04,VALID,996.018,VALID,0,VALID,94.5844,VALID,0,VALID,23.2524,VALID,147,VALID,0.00664063,
2011-12-02, 02:06:04,VALID,995.996,VALID,0,VALID,94.5844,VALID,0,VALID,23.2117,VALID,147,VALID,0,
2011-12-02, 02:07:04,VALID,996.01,VALID,0,VALID,94.5844,VALID,0,VALID,23.2117,VALID,147,VALID,0.0101562,
2011-12-02, 02:08:04,VALID,995.968,VALID,0,VALID,94.531,VALID,0,VALID,23.2117,VALID,147,VALID,0.0902344,
2011-12-02, 02:09:04,VALID,995.981,VALID,0,VALID,94.5691,VALID,0,VALID,23.2117,VALID,147,VALID,0,
2011-12-02, 02:10:04,VALID,995.991,VALID,0,VALID,94.5615,VALID,0,VALID,23.2117,VALID,147,VALID,0,
2011-12-02, 02:11:04,VALID,995.969,VALID,0,VALID,94.5386,VALID,0,VALID,23.2134,VALID,147,VALID,0.512109,
2011-12-02, 02:12:04,VALID,995.945,VALID,0,VALID,94.5539,VALID,0,VALID,23.1744,VALID,147,VALID,0.582422,
2011-12-02, 02:13:04,VALID,995.922,VALID,0,VALID,94.531,VALID,0,VALID,23.1549,VALID,29,VALID,0.686719,
2011-12-02, 02:14:04,VALID,995.908,VALID,0,VALID,94.5081,VALID,0,VALID,23.1744,VALID,29,VALID,0.59375,
2011-12-02, 02:15:04,VALID,995.926,VALID,0,VALID,94.5157,VALID,0,VALID,23.1549,VALID,29,VALID,0.733984,
2011-12-02, 02:16:04,VALID,995.889,VALID,0,VALID,94.5157,VALID,0,VALID,23.1159,VALID,29,VALID,0.908594,
2011-12-02, 02:17:04,VALID,995.854,VALID,0,VALID,94.5005,VALID,0,VALID,23.1354,VALID,47,VALID,0.825,
2011-12-02, 02:18:04,VALID,995.847,VALID,0,VALID,94.5081,VALID,0,VALID,23.0946,VALID,63,VALID,0.829687,
2011-12-02, 02:19:04,VALID,995.822,VALID,0,VALID,94.4852,VALID,0,VALID,23.0964,VALID,63,VALID,0.882813,
2011-12-02, 02:20:04,VALID,995.812,VALID,0,VALID,94.5005,VALID,0,VALID,23.0964,VALID,63,VALID,0.954687,
2011-12-02, 02:21:04,VALID,995.778,VALID,0,VALID,94.47,VALID,0,VALID,23.1159,VALID,63,VALID,0.869531,
2011-12-02, 02:22:04,VALID,995.749,VALID,0,VALID,94.4623,VALID,0,VALID,23.1354,VALID,63,VALID,0.599219,
2011-12-02, 02:23:04,VALID,995.719,VALID,0,VALID,94.4394,VALID,0,VALID,23.1159,VALID,63,VALID,0.0289063,
2011-12-02, 02:24:04,VALID,995.693,VALID,0,VALID,94.4623,VALID,0.104696,VALID,23.0946,VALID,63,VALID,0,
2011-12-02, 02:25:04,VALID,995.661,VALID,0,VALID,94.4471,VALID,0,VALID,23.0751,VALID,63,VALID,0,
2011-12-02, 02:26:04,VALID,995.613,VALID,0,VALID,94.4471,VALID,0,VALID,23.0361,VALID,63,VALID,0,
2011-12-02, 02:27:04,VALID,995.593,VALID,0,VALID,94.4318,VALID,0,VALID,23.0378,VALID,63,VALID,0,
2011-12-02, 02:28:04,VALID,995.567,VALID,0,VALID,94.4242,VALID,0,VALID,22.9971,VALID,63,VALID,0,
2011-12-02, 02:29:04,VALID,995.536,VALID,0,VALID,94.4242,VALID,0,VALID,22.9988,VALID,63,VALID,0,
2011-12-02, 02:30:04,VALID,995.558,VALID,0,VALID,94.4242,VALID,0,VALID,22.9988,VALID,63,VALID,0,
2011-12-02, 02:31:04,VALID,995.545,VALID,0,VALID,94.3937,VALID,0,VALID,22.9988,VALID,63,VALID,0,
2011-12-02, 02:32:04,VALID,995.52,VALID,0,VALID,94.4013,VALID,0,VALID,22.9988,VALID,63,VALID,0,
2011-12-02, 02:33:04,VALID,995.487,VALID,0,VALID,94.386,VALID,0,VALID,22.9988,VALID,63,VALID,0,
2011-12-02, 02:34:04,VALID,995.521,VALID,0,VALID,94.3937,VALID,0,VALID,23.0183,VALID,63,VALID,0,
2011-12-02, 02:35:04,VALID,995.467,VALID,0,VALID,94.3937,VALID,0,VALID,23.0183,VALID,63,VALID,0,
2011-12-02, 02:36:04,VALID,995.449,VALID,0,VALID,94.4089,VALID,0,VALID,22.9971,VALID,63,VALID,0,
2011-12-02, 02:37:04,VALID,995.428,VALID,0,VALID,94.4013,VALID,0,VALID,22.9971,VALID,63,VALID,0,
2011-12-02, 02:38:04,VALID,995.42,VALID,0,VALID,94.3937,VALID,0.104696,VALID,23.0166,VALID,63,VALID,0,
2011-12-02, 02:39:04,VALID,995.384,VALID,0,VALID,94.4165,VALID,0,VALID,22.9988,VALID,63,VALID,0,
2011-12-02, 02:40:04,VALID,995.373,VALID,0,VALID,94.4242,VALID,0,VALID,23.0201,VALID,63,VALID,0,
2011-12-02, 02:41:04,VALID,995.322,VALID,0,VALID,94.4165,VALID,0,VALID,22.9988,VALID,63,VALID,0,
2011-12-02, 02:42:04,VALID,995.33,VALID,0,VALID,94.4013,VALID,0,VALID,23.0183,VALID,63,VALID,0,
2011-12-02, 02:43:04,VALID,995.287,VALID,0,VALID,94.4165,VALID,0,VALID,23.0396,VALID,63,VALID,0,
2011-12-02, 02:44:04,VALID,995.296,VALID,0,VALID,94.4089,VALID,0,VALID,23.0786,VALID,63,VALID,0,
2011-12-02, 02:45:04,VALID,995.303,VALID,0,VALID,94.4318,VALID,0,VALID,23.0769,VALID,63,VALID,0,
2011-12-02, 02:46:04,VALID,995.277,VALID,0,VALID,94.4242,VALID,0,VALID,23.1176,VALID,63,VALID,0,
2011-12-02, 02:47:04,VALID,995.311,VALID,0,VALID,94.4394,VALID,0,VALID,23.1159,VALID,76,VALID,0,
2011-12-02, 02:48:04,VALID,995.312,VALID,0,VALID,94.4165,VALID,0,VALID,23.1159,VALID,131,VALID,0,
2011-12-02, 02:49:04,VALID,995.359,VALID,0,VALID,94.4471,VALID,0,VALID,23.1159,VALID,131,VALID,0,
2011-12-02, 02:50:04,VALID,995.328,VALID,0,VALID,94.4089,VALID,0,VALID,23.1159,VALID,131,VALID,0,
2011-12-02, 02:51:04,VALID,995.345,VALID,0,VALID,94.4013,VALID,0,VALID,23.1159,VALID,131,VALID,0,
2011-12-02, 02:52:04,VALID,995.35,VALID,0,VALID,94.4394,VALID,0,VALID,23.1371,VALID,131,VALID,0,
2011-12-02, 02:53:04,VALID,995.364,VALID,0,VALID,94.4089,VALID,0,VALID,23.1159,VALID,89,VALID,0,
2011-12-02, 02:54:04,VALID,995.374,VALID,0,VALID,94.4165,VALID,0,VALID,23.1141,VALID,82,VALID,0,
2011-12-02, 02:55:04,VALID,995.348,VALID,0,VALID,94.4089,VALID,0,VALID,23.0946,VALID,82,VALID,0,
2011-12-02, 02:56:04,VALID,995.339,VALID,0,VALID,94.4318,VALID,0,VALID,23.0946,VALID,82,VALID,0,
2011-12-02, 02:57:04,VALID,995.329,VALID,0,VALID,94.386,VALID,0.104696,VALID,23.0946,VALID,82,VALID,0,
2011-12-02, 02:58:04,VALID,995.302,VALID,0,VALID,94.4013,VALID,0,VALID,23.1141,VALID,82,VALID,0,
2011-12-02, 02:59:04,VALID,995.344,VALID,0,VALID,94.386,VALID,0,VALID,23.1159,VALID,82,VALID,0,
2011-12-02, 03:00:04,VALID,995.342,VALID,0,VALID,94.4013,VALID,0,VALID,23.0769,VALID,82,VALID,0,
2011-12-02, 03:01:04,VALID,995.293,VALID,0,VALID,94.3937,VALID,0,VALID,23.0769,VALID,82,VALID,0,
2011-12-02, 03:02:04,VALID,995.306,VALID,0,VALID,94.386,VALID,0,VALID,23.0964,VALID,82,VALID,0,
2011-12-02, 03:03:04,VALID,995.292,VALID,0,VALID,94.386,VALID,0,VALID,23.0964,VALID,82,VALID,0,
2011-12-02, 03:04:04,VALID,995.287,VALID,0,VALID,94.3631,VALID,0,VALID,23.0964,VALID,82,VALID,0,
2011-12-02, 03:05:04,VALID,995.3,VALID,0,VALID,94.3708,VALID,0,VALID,23.0964,VALID,82,VALID,0,
2011-12-02, 03:06:04,VALID,995.281,VALID,0,VALID,94.3631,VALID,0,VALID,23.0964,VALID,82,VALID,0,
2011-12-02, 03:07:04,VALID,995.298,VALID,0,VALID,94.3784,VALID,0,VALID,23.0769,VALID,82,VALID,0,
2011-12-02, 03:08:04,VALID,995.251,VALID,0,VALID,94.386,VALID,0,VALID,23.0769,VALID,82,VALID,0,
2011-12-02, 03:09:04,VALID,995.253,VALID,0,VALID,94.3937,VALID,0,VALID,23.0378,VALID,82,VALID,0,
2011-12-02, 03:10:04,VALID,995.253,VALID,0,VALID,94.4089,VALID,0,VALID,23.0183,VALID,82,VALID,0,
2011-12-02, 03:11:04,VALID,995.256,VALID,0,VALID,94.386,VALID,0,VALID,23.0396,VALID,82,VALID,0,
2011-12-02, 03:12:04,VALID,995.271,VALID,0,VALID,94.386,VALID,0,VALID,22.9988,VALID,82,VALID,0,
2011-12-02, 03:13:04,VALID,995.269,VALID,0,VALID,94.4013,VALID,0,VALID,23.0201,VALID,82,VALID,0,
2011-12-02, 03:14:04,VALID,995.263,VALID,0,VALID,94.4089,VALID,0,VALID,22.9988,VALID,82,VALID,0,
2011-12-02, 03:15:04,VALID,995.255,VALID,0,VALID,94.4089,VALID,0,VALID,22.9598,VALID,82,VALID,0,
2011-12-02, 03:16:04,VALID,995.264,VALID,0,VALID,94.3937,VALID,0,VALID,22.9793,VALID,82,VALID,0,
2011-12-02, 03:17:04,VALID,995.238,VALID,0,VALID,94.4013,VALID,0,VALID,22.9598,VALID,82,VALID,0,
2011-12-02, 03:18:04,VALID,995.229,VALID,0,VALID,94.4013,VALID,0,VALID,22.9615,VALID,82,VALID,0,
2011-12-02, 03:19:04,VALID,995.241,VALID,0,VALID,94.4242,VALID,0,VALID,22.942,VALID,82,VALID,0,
2011-12-02, 03:20:04,VALID,995.218,VALID,0,VALID,94.4394,VALID,0,VALID,22.9208,VALID,82,VALID,0,
2011-12-02, 03:21:04,VALID,995.198,VALID,0,VALID,94.4165,VALID,0,VALID,22.9225,VALID,82,VALID,0,
2011-12-02, 03:22:04,VALID,995.195,VALID,0,VALID,94.4623,VALID,0,VALID,22.8818,VALID,82,VALID,0,
2011-12-02, 03:23:04,VALID,995.229,VALID,0,VALID,94.4242,VALID,0,VALID,22.825,VALID,82,VALID,0,
2011-12-02, 03:24:04,VALID,995.236,VALID,0,VALID,94.4623,VALID,0.104696,VALID,22.8427,VALID,82,VALID,0,
2011-12-02, 03:25:04,VALID,995.237,VALID,0,VALID,94.4547,VALID,0,VALID,22.8427,VALID,82,VALID,0,
2011-12-02, 03:26:04,VALID,995.243,VALID,0,VALID,94.47,VALID,0,VALID,22.7825,VALID,82,VALID,0,
2011-12-02, 03:27:04,VALID,995.225,VALID,0,VALID,94.4852,VALID,0,VALID,22.7647,VALID,82,VALID,0,
2011-12-02, 03:28:04,VALID,995.214,VALID,0,VALID,94.4928,VALID,0,VALID,22.7647,VALID,82,VALID,0,
2011-12-02, 03:29:04,VALID,995.224,VALID,0,VALID,94.5081,VALID,0,VALID,22.7452,VALID,82,VALID,0,
2011-12-02, 03:30:04,VALID,995.189,VALID,0,VALID,94.4776,VALID,0,VALID,22.7257,VALID,82,VALID,0,
2011-12-02, 03:31:04,VALID,995.191,VALID,0,VALID,94.5005,VALID,0,VALID,22.7045,VALID,82,VALID,0,
2011-12-02, 03:32:04,VALID,995.168,VALID,0,VALID,94.5005,VALID,0,VALID,22.7435,VALID,82,VALID,0,
2011-12-02, 03:33:04,VALID,995.172,VALID,0,VALID,94.5005,VALID,0,VALID,22.763,VALID,82,VALID,0,
2011-12-02, 03:34:04,VALID,995.188,VALID,0,VALID,94.5081,VALID,0,VALID,22.763,VALID,76,VALID,0.928125,
2011-12-02, 03:35:04,VALID,995.206,VALID,0,VALID,94.5157,VALID,0,VALID,22.7452,VALID,76,VALID,1.03203,
2011-12-02, 03:36:04,VALID,995.216,VALID,0,VALID,94.5386,VALID,0,VALID,22.646,VALID,76,VALID,0.603516,
2011-12-02, 03:37:04,VALID,995.217,VALID,0,VALID,94.5539,VALID,0,VALID,22.5874,VALID,76,VALID,0.628516,
2011-12-02, 03:38:04,VALID,995.229,VALID,0,VALID,94.5615,VALID,0,VALID,22.5679,VALID,76,VALID,0.748828,
2011-12-02, 03:39:04,VALID,995.248,VALID,0,VALID,94.5539,VALID,0,VALID,22.5874,VALID,84,VALID,0.667969,
2011-12-02, 03:40:04,VALID,995.284,VALID,0,VALID,94.5462,VALID,0,VALID,22.5874,VALID,86,VALID,0.689844,
2011-12-02, 03:41:04,VALID,995.254,VALID,0,VALID,94.5462,VALID,0,VALID,22.5874,VALID,86,VALID,0.578125,
2011-12-02, 03:42:04,VALID,995.251,VALID,0,VALID,94.5615,VALID,0,VALID,22.5874,VALID,86,VALID,0.586328,
2011-12-02, 03:43:04,VALID,995.272,VALID,0,VALID,94.5691,VALID,0.104696,VALID,22.5874,VALID,86,VALID,0.502344,
2011-12-02, 03:44:04,VALID,995.237,VALID,0,VALID,94.5615,VALID,0,VALID,22.5874,VALID,86,VALID,0.537891,
2011-12-02, 03:45:04,VALID,995.227,VALID,0,VALID,94.5768,VALID,0,VALID,22.5679,VALID,86,VALID,0.436328,
2011-12-02, 03:46:04,VALID,995.266,VALID,0,VALID,94.5691,VALID,0.104696,VALID,22.5289,VALID,86,VALID,0.339063,
2011-12-02, 03:47:04,VALID,995.26,VALID,0,VALID,94.5844,VALID,0,VALID,22.5094,VALID,86,VALID,0.334375,
2011-12-02, 03:48:04,VALID,995.28,VALID,0,VALID,94.5844,VALID,0,VALID,22.5289,VALID,86,VALID,0.369531,
2011-12-02, 03:49:04,VALID,995.323,VALID,0,VALID,94.5844,VALID,0.104696,VALID,22.5874,VALID,86,VALID,0.389844,
2011-12-02, 03:50:04,VALID,995.332,VALID,0,VALID,94.5615,VALID,0,VALID,22.6069,VALID,86,VALID,0.433594,
2011-12-02, 03:51:04,VALID,995.342,VALID,0,VALID,94.5768,VALID,0,VALID,22.646,VALID,86,VALID,0.572656,
2011-12-02, 03:52:04,VALID,995.381,VALID,0,VALID,94.5691,VALID,0,VALID,22.646,VALID,67,VALID,0.565625,